sat.trackr.live / text

‹ back to catalog

STARLINK-1686

NORAD 46328 · 2020-062D

PAYLOAD ACTIVE UNKNOWN

§ Identity

Operator
Country
US
Launch date
2020-09-03
Launch site
AFETR
Launch vehicle
Mass (kg)
RCS (m²)

Purposes: comms

External: N2YO · Heavens-Above · Gunter

§ Orbital elements

Epoch: 2026-05-25T01:33:17.494848Z

Period
89.41 min
Inclination
53.0265°
Eccentricity
0.0012582
Mean motion
16.10526394 rev/d
Perigee alt
237.1 km
Apogee alt
253.7 km
Semi-major
6,623.5 km
B*
8.9954e-4
RAAN
288.4547°
Arg perigee
290.4769°
Mean anomaly
69.4913°
Rev number
31,729

§ Raw data

STARLINK-16861 46328U 20062D   26145.06478582  .00905989  48230-3  89954-3 0  99992 46328  53.0265 288.4547 0012582 290.4769  69.4913 16.10526394317290

JSON: /api/v1/satellites/46328 · /tle

For live sub-satellite position, see the globe view (requires WebGL).

§ Visibility from observer

Set your observer location to see the next 7 days of passes ≥ 10°. The values pass through the URL so the page stays shareable.

No JS? Fill the form by hand. The geolocation button needs JavaScript.